EW7946 Weather Reports


time (UTC)temp
C
wind
direction
speed
KPH
gust
KPH
rain 1hr
cm
rain 24hr
cm
rain mn
cm
humidity
%
barometer
mb
20260508013356 13 250 1.6 3.2 0.00 0.71 0.00 1 1013.6
20260508012357 13 210 0.0 4.8 0.00 0.71 0.00 1 1013.7
20260508011332 14 219 0.0 0.0 0.00 0.71 0.00 1 1013.7
20260508010340 14 216 0.0 0.0 0.00 0.71 0.00 1 1013.7
20260508005338 14 216 0.0 0.0 0.00 0.71 0.00 1 1013.7
20260508004332 14 216 0.0 0.0 0.00 0.71 0.00 1 1013.7
20260508003350 14 216 0.0 0.0 0.00 0.71 0.00 3 1013.7
20260508002328 14 216 0.0 0.0 0.00 0.71 0.00 5 1013.6
20260508001404 15 216 0.0 1.6 0.00 0.71 0.00 8 1013.7
20260508000346 15 216 0.0 3.2 0.00 0.71 0.00 10 1013.9
20260507235338 15 181 1.6 3.2 0.00 0.71 0.00 14 1014.0
20260507234331 15 215 0.0 1.6 0.00 0.71 0.00 17 1014.1
20260507233335 15 215 0.0 3.2 0.00 0.71 0.00 21 1014.1
20260507232330 15 215 1.6 4.8 0.00 0.71 0.00 25 1014.2
20260507231327 15 215 1.6 4.8 0.00 0.71 0.00 28 1014.3
20260507230330 15 205 1.6 3.2 0.00 0.71 0.00 31 1014.3
20260507225332 15 107 0.0 3.2 0.00 0.71 0.00 33 1014.3
20260507224337 16 107 0.0 3.2 0.00 0.71 0.00 32 1014.3
20260507223338 16 107 1.6 3.2 0.00 0.71 0.00 33 1014.3
20260507222355 16 107 0.0 0.0 0.00 0.71 0.00 32 1014.2
20260507221329 16 107 0.0 0.0 0.00 0.71 0.00 35 1014.2
20260507220340 16 107 0.0 0.0 0.00 0.71 0.00 35 1014.2
20260507215342 16 107 0.0 3.2 0.00 0.71 0.15 36 1014.2
20260507214344 16 107 1.6 4.8 0.00 0.71 0.15 36 1014.1
20260507213346 16 106 0.0 0.0 0.00 0.71 0.15 35 1014.2
20260507212337 16 53 0.0 0.0 0.00 0.71 0.15 35 1014.3
20260507211325 16 136 0.0 0.0 0.00 0.71 0.15 36 1014.3
20260507210331 16 128 1.6 8.0 0.00 0.71 0.15 36 1014.2
20260507205323 17 126 1.6 3.2 0.00 0.71 0.15 36 1014.1
20260507204341 17 134 0.0 6.4 0.00 0.71 0.15 37 1014.2
20260507203356 17 157 3.2 8.0 0.00 0.71 0.15 36 1014.2
20260507202340 17 143 3.2 8.0 0.00 0.71 0.15 34 1014.1
20260507201338 17 108 3.2 8.0 0.00 0.71 0.15 34 1014.1
20260507200406 17 161 3.2 4.8 0.00 0.71 0.15 34 1014.1
20260507195319 17 123 1.6 8.0 0.00 0.71 0.15 33 1014.1
20260507194344 17 105 4.8 11.3 0.00 0.71 0.15 32 1014.1
20260507193343 17 94 4.8 11.3 0.00 0.71 0.15 33 1014.0
20260507192335 18 107 6.4 12.9 0.00 0.71 0.15 33 1014.0
20260507191323 18 106 4.8 12.9 0.00 0.71 0.15 36 1013.9
20260507190412 18 88 8.0 16.1 0.00 0.71 0.15 38 1013.9
20260507185323 18 106 8.0 12.9 0.00 0.71 0.15 40 1013.9
20260507184319 18 98 8.0 14.5 0.00 0.71 0.15 42 1013.8
20260507183345 18 98 4.8 12.9 0.00 0.71 0.15 43 1013.7
20260507182337 18 93 4.8 11.3 0.00 0.71 0.15 41 1013.7
20260507181334 18 102 1.6 16.1 0.00 0.71 0.15 40 1013.7
20260507180341 18 103 9.7 16.1 0.00 0.71 0.15 40 1013.4
20260507175328 18 98 9.7 17.7 0.00 0.71 0.15 42 1013.3
20260507174335 18 103 6.4 20.9 0.00 0.71 0.15 44 1013.1
20260507173352 18 144 11.3 19.3 0.00 0.71 0.15 45 1013.1
20260507172321 19 111 8.0 19.3 0.00 0.71 0.15 44 1013.1
20260507171345 19 100 8.0 20.9 0.00 0.71 0.15 45 1012.8
20260507170343 19 53 11.3 22.5 0.00 0.71 0.15 45 1012.8
20260507165343 19 105 6.4 17.7 0.00 0.89 0.15 43 1012.8
20260507164337 19 103 8.0 20.9 0.00 0.89 0.15 43 1012.8
20260507163340 19 101 8.0 20.9 0.00 0.89 0.15 45 1012.8
20260507162334 19 65 9.7 17.7 0.00 0.89 0.15 47 1012.8
20260507161330 19 92 9.7 22.5 0.00 0.89 0.15 46 1012.7
20260507160333 19 94 12.9 22.5 0.00 0.89 0.15 43 1012.8
20260507155332 19 88 11.3 22.5 0.00 0.89 0.15 39 1012.8
20260507154335 20 110 8.0 16.1 0.00 0.89 0.15 38 1012.8
20260507153347 20 98 6.4 20.9 0.00 0.89 0.15 35 1012.8
20260507152326 20 61 11.3 19.3 0.00 0.89 0.15 37 1012.8
20260507151324 20 96 8.0 16.1 0.00 0.89 0.15 33 1012.7
20260507150354 19 89 11.3 27.4 0.00 0.89 0.15 33 1012.8
20260507145324 20 98 8.0 25.7 0.00 0.89 0.15 25 1012.8
20260507144335 19 103 11.3 22.5 0.00 0.89 0.15 19 1012.9
20260507143341 20 68 11.3 20.9 0.00 0.89 0.15 14 1012.9
20260507142327 19 53 11.3 22.5 0.00 0.89 0.15 11 1013.0
20260507141332 19 75 12.9 20.9 0.00 0.89 0.15 15 1012.9
20260507140352 20 108 12.9 22.5 0.00 0.89 0.15 15 1012.9
20260507135347 20 70 8.0 22.5 0.00 0.89 0.15 12 1013.1
20260507134355 20 105 9.7 20.9 0.00 0.89 0.15 12 1013.1
20260507133400 19 74 8.0 19.3 0.00 0.89 0.15 8 1013.1
20260507132329 19 91 12.9 20.9 0.00 0.89 0.15 23 1013.3
20260507131335 20 59 9.7 17.7 0.00 0.89 0.15 22 1013.3
20260507130337 20 75 11.3 16.1 0.00 0.89 0.15 26 1013.3
20260507125332 20 104 8.0 16.1 0.00 0.89 0.15 31 1013.2
20260507124344 20 53 8.0 19.3 0.00 0.89 0.15 37 1013.2
20260507123352 20 12 8.0 17.7 0.00 0.89 0.15 41 1013.1
20260507122326 20 60 11.3 22.5 0.00 0.89 0.15 46 1013.1
20260507121329 20 34 14.5 22.5 0.00 0.89 0.15 48 1013.0
20260507120335 20 110 9.7 17.7 0.00 0.89 0.15 50 1013.0
20260507115346 21 68 11.3 19.3 0.00 0.89 0.15 56 1013.1
20260507114336 23 65 8.0 12.9 0.00 0.89 0.15 46 1013.1
20260507113347 23 225 4.8 14.5 0.00 0.89 0.15 44 1013.1
20260507112344 22 224 3.2 11.3 0.00 0.89 0.15 48 1013.1
20260507111334 22 213 8.0 17.7 0.00 0.89 0.15 51 1013.2
20260507110343 22 229 8.0 17.7 0.00 0.89 0.15 52 1013.3
20260507105325 22 231 11.3 24.1 0.00 0.89 0.15 54 1013.3
20260507104331 22 181 8.0 19.3 0.00 0.89 0.15 54 1013.4
20260507103347 22 198 9.7 22.5 0.00 0.89 0.15 55 1013.4
20260507102330 22 170 9.7 20.9 0.00 0.89 0.15 57 1013.5
20260507101323 21 304 3.2 17.7 0.00 0.89 0.15 56 1013.4
20260507100347 21 178 6.4 22.5 0.00 0.89 0.15 56 1013.6
20260507095348 21 238 11.3 19.3 0.00 0.89 0.15 58 1013.6
20260507094336 20 233 11.3 22.5 0.00 0.89 0.15 59 1013.7
20260507093348 20 195 14.5 25.7 0.10 0.89 0.15 60 1013.8
20260507092348 20 232 4.8 11.3 0.20 0.89 0.15 59 1013.8
20260507091320 19 265 4.8 8.0 0.20 0.89 0.15 52 1013.9
20260507090350 18 262 4.8 8.0 0.20 0.89 0.15 49 1013.8
20260507085321 19 240 4.8 9.7 0.20 0.89 0.15 45 1014.1
20260507084333 19 242 4.8 12.9 0.20 0.89 0.15 47 1013.8
20260507083353 19 300 3.2 14.5 0.10 0.79 0.13 49 1013.8
20260507082324 20 328 6.4 14.5 0.00 0.71 0.10 56 1013.6
20260507081319 20 253 11.3 19.3 0.00 0.71 0.10 58 1013.5
20260507080410 20 197 3.2 9.7 0.00 0.71 0.10 50 1013.4
20260507075329 20 112 4.8 9.7 0.00 0.79 0.10 47 1013.5
20260507074359 20 88 0.0 11.3 0.00 0.79 0.10 46 1013.6
20260507073349 20 215 4.8 9.7 0.00 0.79 0.10 49 1013.5
20260507072350 19 108 3.2 9.7 0.00 0.79 0.10 42 1013.5
20260507071347 19 221 3.2 8.0 0.00 0.79 0.10 32 1013.5
20260507070354 18 210 1.6 9.7 0.00 0.79 0.10 10 1013.5
20260507064401 17 236 3.2 8.0 0.00 1.40 0.10 1 1013.3
20260507063354 17 221 1.6 6.4 0.00 1.40 0.10 1 1013.2
20260507062334 17 268 1.6 8.0 0.00 1.40 0.10 1 1013.2
20260507061319 17 234 1.6 6.4 0.00 1.40 0.10 1 1013.2
20260507060353 16 257 1.6 3.2 0.00 1.40 0.10 1 1013.2
20260507055348 16 205 0.0 0.0 0.00 1.40 0.10 1 1013.1
20260507054320 16 205 0.0 0.0 0.00 1.40 0.10 1 1013.2
20260507053336 16 205 0.0 1.6 0.00 1.40 0.10 1 1013.1
20260507052342 16 205 0.0 3.2 0.00 1.40 0.10 1 1013.0
20260507051348 16 205 1.6 3.2 0.00 1.40 0.10 1 1013.0
20260507050333 16 195 1.6 4.8 0.00 1.40 0.10 1 1012.9
20260507045350 -17 0.0 0.0 0.00 1.40 0.10 1012.8
20260507044346 -17 0.0 0.0 0.00 1.40 0.10 1012.7
20260507042339 -17 0.0 0.0 0.00 1.40 0.10 1012.3
20260507041403 -17 0.0 0.0 0.10 1.40 0.10 1012.5
20260507040333 -17 0.0 0.0 0.10 1.40 0.10 1012.4
20260507035334 -17 0.0 0.0 0.20 1.40 0.10 1012.2
20260507033336 -17 0.0 0.0 0.30 1.40 0.10 1012.1
20260507031351 16 144 0.0 0.0 0.30 1.30 0.08 6 1012.2
20260507030358 16 144 0.0 3.2 0.41 1.30 0.08 12 1012.2
20260507025330 17 120 1.6 3.2 0.30 1.19 0.05 18 1012.2
20260507024323 17 153 0.0 4.8 0.20 1.09 0.05 23 1012.1
20260507023339 17 239 0.0 6.4 0.20 1.09 0.05 27 1012.0
20260507022342 17 257 3.2 8.0 0.10 0.99 0.03 29 1011.7
20260507021331 17 290 3.2 8.0 0.10 0.99 0.03 31 1011.6
20260507020343 17 231 0.0 0.0 0.00 0.89 0.00 32 1011.7
20260507015342 17 242 0.0 3.2 0.00 0.89 0.00 33 1011.8
20260507014334 17 238 3.2 6.4 0.00 0.89 0.00 33 1011.8